Time,TemperatureF,DewpointF,PressureIn,WindDirection,WindDirectionDegrees,WindSpeedMPH,WindSpeedGustMPH,Humidity,HourlyPrecipIn,Conditions,Clouds,dailyrainin,SoftwareType,DateUTC
2013-02-21 00:03:00,6.9,1.8,30.52,NNE,33,0.0,0.0,79,0.00,,,0.01,Wunderground v.1.15,2013-02-21 06:03:00,
2013-02-21 00:08:00,6.7,1.3,30.52,NNE,33,0.0,1.0,78,0.00,,,0.01,Wunderground v.1.15,2013-02-21 06:08:00,
2013-02-21 00:15:00,6.4,1.0,30.52,NNE,33,0.0,0.0,78,0.00,,,0.01,Wunderground v.1.15,2013-02-21 06:15:00,
2013-02-21 00:20:00,5.9,0.2,30.52,NNE,33,0.0,0.0,77,0.00,,,0.01,Wunderground v.1.15,2013-02-21 06:20:00,
2013-02-21 00:26:00,5.3,-0.3,30.52,NNE,33,0.0,0.0,77,0.00,,,0.01,Wunderground v.1.15,2013-02-21 06:26:00,
2013-02-21 00:31:00,4.9,-0.5,30.52,NNE,33,0.0,0.0,78,0.00,,,0.01,Wunderground v.1.15,2013-02-21 06:31:00,
2013-02-21 00:36:00,4.5,-0.8,30.52,NNE,33,0.0,0.0,78,0.00,,,0.01,Wunderground v.1.15,2013-02-21 06:36:00,
2013-02-21 00:43:00,4.0,-1.1,30.52,NNE,33,0.0,0.0,79,0.00,,,0.01,Wunderground v.1.15,2013-02-21 06:43:00,
2013-02-21 00:48:00,3.6,-1.2,30.52,NNE,33,0.0,0.0,80,0.00,,,0.01,Wunderground v.1.15,2013-02-21 06:48:00,
2013-02-21 00:54:00,3.4,-1.1,30.52,NNE,33,0.0,0.0,81,0.00,,,0.01,Wunderground v.1.15,2013-02-21 06:54:00,
2013-02-21 00:59:00,3.1,-1.4,30.52,NNE,33,0.0,0.0,81,0.00,,,0.01,Wunderground v.1.15,2013-02-21 06:59:00,
2013-02-21 01:05:00,2.8,1.0,30.52,NNE,33,0.0,0.0,92,0.00,,,0.01,Wunderground v.1.15,2013-02-21 07:05:00,
2013-02-21 01:10:00,2.6,-1.6,30.52,NNE,33,0.0,0.0,82,0.00,,,0.01,Wunderground v.1.15,2013-02-21 07:10:00,
2013-02-21 01:15:00,2.3,-1.9,30.53,NNE,33,0.0,0.0,82,0.00,,,0.01,Wunderground v.1.15,2013-02-21 07:15:00,
2013-02-21 01:22:00,2.0,-2.2,30.52,NNE,33,0.0,0.0,82,0.00,,,0.01,Wunderground v.1.15,2013-02-21 07:22:00,
2013-02-21 01:28:00,1.7,-2.3,30.52,NNE,33,0.0,0.0,83,0.00,,,0.01,Wunderground v.1.15,2013-02-21 07:28:00,
2013-02-21 01:34:00,1.5,-2.5,30.53,NNE,33,0.0,0.0,83,0.00,,,0.01,Wunderground v.1.15,2013-02-21 07:34:00,
2013-02-21 01:40:00,1.3,-2.7,30.53,NNE,33,0.0,0.0,83,0.00,,,0.01,Wunderground v.1.15,2013-02-21 07:40:00,
2013-02-21 01:46:00,1.0,-3.0,30.54,NNE,33,0.0,0.0,83,0.00,,,0.01,Wunderground v.1.15,2013-02-21 07:46:00,
2013-02-21 01:51:00,0.9,-2.8,30.54,NNE,33,0.0,0.0,84,0.00,,,0.01,Wunderground v.1.15,2013-02-21 07:51:00,
2013-02-21 01:57:00,0.7,-3.0,30.54,NNE,33,0.0,0.0,84,0.00,,,0.01,Wunderground v.1.15,2013-02-21 07:57:00,
2013-02-21 02:02:00,0.6,-3.1,30.54,NNE,33,0.0,0.0,84,0.00,,,0.01,Wunderground v.1.15,2013-02-21 08:02:00,
2013-02-21 02:07:00,0.4,-3.3,30.54,NE,34,0.0,3.0,84,0.00,,,0.01,Wunderground v.1.15,2013-02-21 08:07:00,
2013-02-21 02:12:00,0.2,-3.5,30.54,NE,34,0.0,0.0,84,0.00,,,0.01,Wunderground v.1.15,2013-02-21 08:12:00,
2013-02-21 02:17:00,0.2,-3.2,30.54,NE,34,0.0,1.0,85,0.00,,,0.01,Wunderground v.1.15,2013-02-21 08:17:00,
2013-02-21 02:22:00,0.4,-3.0,30.55,NE,34,0.0,0.0,85,0.00,,,0.01,Wunderground v.1.15,2013-02-21 08:22:00,
2013-02-21 02:27:00,0.6,-2.6,30.55,NE,34,0.0,0.0,86,0.00,,,0.01,Wunderground v.1.15,2013-02-21 08:27:00,
2013-02-21 02:33:00,0.9,-2.3,30.55,ENE,68,3.0,3.0,86,0.00,,,0.00,Wunderground v.1.15,2013-02-21 08:33:00,
2013-02-21 02:38:00,1.1,-2.1,30.54,ENE,68,2.0,3.0,86,0.00,,,0.00,Wunderground v.1.15,2013-02-21 08:38:00,
2013-02-21 02:43:00,1.5,-1.5,30.54,ENE,68,4.0,4.0,87,0.00,,,0.00,Wunderground v.1.15,2013-02-21 08:43:00,
2013-02-21 02:48:00,1.9,-1.1,30.54,ENE,71,4.0,6.0,87,0.00,,,0.00,Wunderground v.1.15,2013-02-21 08:48:00,
2013-02-21 02:53:00,2.5,-0.5,30.54,ENE,74,2.0,2.0,87,0.00,,,0.00,Wunderground v.1.15,2013-02-21 08:53:00,
2013-02-21 02:58:00,3.0,0.3,30.54,ENE,74,2.0,3.0,88,0.00,,,0.00,Wunderground v.1.15,2013-02-21 08:58:00,
2013-02-21 03:03:00,3.5,0.5,30.55,NE,40,0.0,3.0,87,0.00,,,0.00,Wunderground v.1.15,2013-02-21 09:03:00,
2013-02-21 03:08:00,3.7,0.7,30.55,NE,40,2.0,3.0,87,0.00,,,0.00,Wunderground v.1.15,2013-02-21 09:08:00,
2013-02-21 03:13:00,3.7,0.4,30.54,NE,40,0.0,1.0,86,0.00,,,0.00,Wunderground v.1.15,2013-02-21 09:13:00,
2013-02-21 03:18:00,3.8,0.5,30.54,NE,40,1.0,3.0,86,0.00,,,0.00,Wunderground v.1.15,2013-02-21 09:18:00,
2013-02-21 03:24:00,4.0,0.7,30.54,NE,44,3.0,4.0,86,0.00,,,0.00,Wunderground v.1.15,2013-02-21 09:24:00,
2013-02-21 03:29:00,4.0,0.5,30.54,NE,44,0.0,4.0,85,0.00,,,0.00,Wunderground v.1.15,2013-02-21 09:29:00,
2013-02-21 03:34:00,4.2,0.9,30.54,NE,44,1.0,3.0,86,0.00,,,0.00,Wunderground v.1.15,2013-02-21 09:34:00,
2013-02-21 03:39:00,4.7,1.7,30.54,East,98,4.0,6.0,87,0.00,,,0.00,Wunderground v.1.15,2013-02-21 09:39:00,
2013-02-21 03:44:00,5.4,2.1,30.54,East,98,0.0,4.0,86,0.00,,,0.00,Wunderground v.1.15,2013-02-21 09:44:00,
2013-02-21 03:49:00,5.6,2.3,30.54,East,98,0.0,4.0,86,0.00,,,0.00,Wunderground v.1.15,2013-02-21 09:49:00,
2013-02-21 03:54:00,5.8,2.3,30.54,East,98,1.0,2.0,85,0.00,,,0.00,Wunderground v.1.15,2013-02-21 09:54:00,
2013-02-21 03:59:00,5.7,2.2,30.54,East,98,0.0,4.0,85,0.00,,,0.00,Wunderground v.1.15,2013-02-21 09:59:00,
2013-02-21 04:04:00,5.8,2.3,30.55,East,98,0.0,2.0,85,0.00,,,0.00,Wunderground v.1.15,2013-02-21 10:04:00,
2013-02-21 04:09:00,5.6,1.8,30.54,East,98,2.0,2.0,84,0.00,,,0.00,Wunderground v.1.15,2013-02-21 10:09:00,
2013-02-21 04:14:00,5.3,1.5,30.54,East,98,4.0,4.0,84,0.00,,,0.00,Wunderground v.1.15,2013-02-21 10:14:00,
2013-02-21 04:19:00,5.0,3.7,30.54,East,98,2.0,4.0,94,0.00,,,0.00,Wunderground v.1.15,2013-02-21 10:19:00,
2013-02-21 04:24:00,4.8,1.0,30.54,ENE,70,0.0,5.0,84,0.00,,,0.00,Wunderground v.1.15,2013-02-21 10:24:00,
2013-02-21 04:30:00,4.7,1.2,30.54,ENE,70,0.0,5.0,85,0.00,,,0.00,Wunderground v.1.15,2013-02-21 10:30:00,
2013-02-21 04:35:00,4.5,1.0,30.54,ENE,70,0.0,3.0,85,0.00,,,0.00,Wunderground v.1.15,2013-02-21 10:35:00,
2013-02-21 04:40:00,4.3,0.8,30.54,ENE,70,2.0,3.0,85,0.00,,,0.00,Wunderground v.1.15,2013-02-21 10:40:00,
2013-02-21 04:45:00,4.2,0.7,30.54,ENE,70,0.0,2.0,85,0.00,,,0.00,Wunderground v.1.15,2013-02-21 10:45:00,
2013-02-21 04:50:00,4.1,0.6,30.53,ENE,69,3.0,4.0,85,0.00,,,0.00,Wunderground v.1.15,2013-02-21 10:50:00,
2013-02-21 04:55:00,3.9,0.4,30.53,ENE,69,2.0,4.0,85,0.00,,,0.00,Wunderground v.1.15,2013-02-21 10:55:00,
2013-02-21 05:00:00,3.7,0.2,30.52,ENE,64,0.0,5.0,85,0.00,,,0.00,Wunderground v.1.15,2013-02-21 11:00:00,
2013-02-21 05:06:00,3.6,0.1,30.52,ENE,74,5.0,5.0,85,0.00,,,0.00,Wunderground v.1.15,2013-02-21 11:06:00,
2013-02-21 05:11:00,3.5,0.3,30.52,ENE,72,3.0,3.0,86,0.00,,,0.00,Wunderground v.1.15,2013-02-21 11:11:00,
2013-02-21 05:16:00,3.6,0.4,30.51,ENE,60,2.0,5.0,86,0.00,,,0.00,Wunderground v.1.15,2013-02-21 11:16:00,
2013-02-21 05:21:00,3.7,0.7,30.51,NE,52,3.0,3.0,87,0.00,,,0.00,Wunderground v.1.15,2013-02-21 11:21:00,
2013-02-21 05:26:00,3.7,0.7,30.51,NE,53,0.0,4.0,87,0.00,,,0.00,Wunderground v.1.15,2013-02-21 11:26:00,
2013-02-21 05:32:00,3.8,0.8,30.50,NE,53,1.0,1.0,87,0.00,,,0.00,Wunderground v.1.15,2013-02-21 11:32:00,
2013-02-21 05:37:00,4.0,1.2,30.50,NE,53,0.0,5.0,88,0.00,,,0.00,Wunderground v.1.15,2013-02-21 11:37:00,
2013-02-21 05:42:00,4.1,1.1,30.49,NE,53,0.0,2.0,87,0.00,,,0.00,Wunderground v.1.15,2013-02-21 11:42:00,
2013-02-21 05:47:00,3.9,0.9,30.48,NE,53,3.0,3.0,87,0.00,,,0.00,Wunderground v.1.15,2013-02-21 11:47:00,
2013-02-21 05:52:00,3.7,0.7,30.48,NE,38,3.0,3.0,87,0.00,,,0.00,Wunderground v.1.15,2013-02-21 11:52:00,
2013-02-21 05:57:00,3.6,0.6,30.47,NE,37,4.0,5.0,87,0.00,,,0.00,Wunderground v.1.15,2013-02-21 11:57:00,
2013-02-21 06:02:00,3.8,1.0,30.46,NE,50,3.0,4.0,88,0.00,,,0.00,Wunderground v.1.15,2013-02-21 12:02:00,
2013-02-21 06:07:00,4.2,1.4,30.44,NNE,30,5.0,8.0,88,0.00,,,0.00,Wunderground v.1.15,2013-02-21 12:07:00,
2013-02-21 06:12:00,4.6,1.8,30.44,NE,39,3.0,5.0,88,0.00,,,0.00,Wunderground v.1.15,2013-02-21 12:12:00,
2013-02-21 06:17:00,4.8,2.0,30.44,ENE,63,2.0,5.0,88,0.00,,,0.00,Wunderground v.1.15,2013-02-21 12:17:00,
2013-02-21 06:22:00,5.1,2.1,30.44,ENE,59,2.0,12.0,87,0.00,,,0.00,Wunderground v.1.15,2013-02-21 12:22:00,
2013-02-21 06:28:00,5.3,2.3,30.44,NNE,18,5.0,12.0,87,0.00,,,0.00,Wunderground v.1.15,2013-02-21 12:28:00,
2013-02-21 06:32:00,5.3,2.0,30.43,NNE,21,4.0,5.0,86,0.00,,,0.00,Wunderground v.1.15,2013-02-21 12:32:00,
2013-02-21 06:38:00,5.3,2.0,30.45,NE,40,3.0,7.0,86,0.00,,,0.00,Wunderground v.1.15,2013-02-21 12:38:00,
2013-02-21 06:43:00,5.4,2.1,30.46,ENE,78,2.0,3.0,86,0.00,,,0.00,Wunderground v.1.15,2013-02-21 12:43:00,
2013-02-21 06:48:00,5.4,2.1,30.46,NE,46,2.0,5.0,86,0.00,,,0.00,Wunderground v.1.15,2013-02-21 12:48:00,
2013-02-21 06:53:00,5.5,2.2,30.50,East,94,2.0,4.0,86,0.00,,,0.00,Wunderground v.1.15,2013-02-21 12:53:00,
2013-02-21 06:58:00,5.9,2.6,30.53,SSW,194,5.0,6.0,86,0.00,,,0.00,Wunderground v.1.15,2013-02-21 12:58:00,
2013-02-21 07:03:00,6.2,2.9,30.56,South,169,7.0,7.0,86,0.00,,,0.00,Wunderground v.1.15,2013-02-21 13:03:00,
2013-02-21 07:08:00,6.2,2.7,30.57,SSE,154,0.0,7.0,85,0.00,,,0.00,Wunderground v.1.15,2013-02-21 13:08:00,
2013-02-21 07:13:00,6.1,2.6,30.57,SSE,153,2.0,3.0,85,0.00,,,0.00,Wunderground v.1.15,2013-02-21 13:13:00,
2013-02-21 07:19:00,5.8,2.3,30.57,SSE,153,1.0,4.0,85,0.00,,,0.00,Wunderground v.1.15,2013-02-21 13:19:00,
2013-02-21 07:24:00,5.5,2.0,30.56,SE,144,1.0,5.0,85,0.00,,,0.00,Wunderground v.1.15,2013-02-21 13:24:00,
2013-02-21 07:29:00,5.3,1.8,30.57,SE,144,0.0,5.0,85,0.00,,,0.00,Wunderground v.1.15,2013-02-21 13:29:00,
2013-02-21 07:34:00,5.0,1.5,30.55,SE,142,1.0,4.0,85,0.00,,,0.00,Wunderground v.1.15,2013-02-21 13:34:00,
2013-02-21 07:39:00,4.8,1.3,30.55,SE,142,0.0,4.0,85,0.00,,,0.00,Wunderground v.1.15,2013-02-21 13:39:00,
2013-02-21 07:44:00,4.7,1.2,30.55,SE,142,0.0,1.0,85,0.00,,,0.00,Wunderground v.1.15,2013-02-21 13:44:00,
2013-02-21 07:49:00,4.6,1.1,30.55,SE,142,0.0,1.0,85,0.00,,,0.00,Wunderground v.1.15,2013-02-21 13:49:00,
2013-02-21 07:54:00,4.6,1.3,30.56,SE,142,0.0,0.0,86,0.00,,,0.00,Wunderground v.1.15,2013-02-21 13:54:00,
2013-02-21 08:00:00,4.7,1.4,30.55,SE,142,0.0,0.0,86,0.00,,,0.00,Wunderground v.1.15,2013-02-21 14:00:00,
2013-02-21 08:05:00,4.9,1.6,30.55,SE,142,0.0,0.0,86,0.00,,,0.00,Wunderground v.1.15,2013-02-21 14:05:00,
2013-02-21 08:10:00,5.1,2.1,30.54,SE,142,0.0,0.0,87,0.00,,,0.00,Wunderground v.1.15,2013-02-21 14:10:00,
2013-02-21 08:15:00,5.4,2.1,30.55,SE,142,0.0,0.0,86,0.00,,,0.00,Wunderground v.1.15,2013-02-21 14:15:00,
2013-02-21 08:20:00,5.6,2.3,30.55,SE,141,0.0,0.0,86,0.00,,,0.00,Wunderground v.1.15,2013-02-21 14:20:00,
2013-02-21 08:25:00,6.0,2.7,30.54,SE,130,2.0,4.0,86,0.00,,,0.00,Wunderground v.1.15,2013-02-21 14:25:00,
2013-02-21 08:30:00,6.3,2.8,30.53,ENE,58,4.0,5.0,85,0.00,,,0.00,Wunderground v.1.15,2013-02-21 14:30:00,
2013-02-21 08:35:00,6.6,3.0,30.52,ENE,57,4.0,5.0,85,0.00,,,0.00,Wunderground v.1.15,2013-02-21 14:35:00,
2013-02-21 08:41:00,6.8,3.0,30.52,ENE,63,4.0,4.0,84,0.00,,,0.00,Wunderground v.1.15,2013-02-21 14:41:00,
2013-02-21 08:46:00,7.1,3.3,30.52,ENE,60,4.0,6.0,84,0.00,,,0.00,Wunderground v.1.15,2013-02-21 14:46:00,
2013-02-21 08:51:00,7.4,3.3,30.52,ENE,70,3.0,4.0,83,0.00,,,0.00,Wunderground v.1.15,2013-02-21 14:51:00,
2013-02-21 08:56:00,7.8,3.7,30.52,East,87,5.0,6.0,83,0.00,,,0.00,Wunderground v.1.15,2013-02-21 14:56:00,
2013-02-21 09:01:00,8.6,4.5,30.51,ENE,65,3.0,4.0,83,0.00,,,0.00,Wunderground v.1.15,2013-02-21 15:01:00,
2013-02-21 09:06:00,9.4,5.0,30.51,ENE,60,5.0,6.0,82,0.00,,,0.00,Wunderground v.1.15,2013-02-21 15:06:00,
2013-02-21 09:11:00,9.9,5.0,30.51,ENE,72,4.0,4.0,80,0.00,,,0.00,Wunderground v.1.15,2013-02-21 15:11:00,
2013-02-21 09:16:00,10.1,4.9,30.50,East,81,5.0,6.0,79,0.00,,,0.00,Wunderground v.1.15,2013-02-21 15:16:00,
2013-02-21 09:22:00,10.4,4.9,30.50,ENE,64,5.0,7.0,78,0.00,,,0.00,Wunderground v.1.15,2013-02-21 15:22:00,
2013-02-21 09:27:00,10.8,5.3,30.50,NE,51,3.0,7.0,78,0.00,,,0.00,Wunderground v.1.15,2013-02-21 15:27:00,
2013-02-21 09:32:00,11.2,5.4,30.50,East,79,4.0,7.0,77,0.00,,,0.00,Wunderground v.1.15,2013-02-21 15:32:00,
2013-02-21 09:37:00,11.3,5.2,30.50,ENE,61,4.0,8.0,76,0.00,,,0.00,Wunderground v.1.15,2013-02-21 15:37:00,
2013-02-21 09:42:00,11.7,5.6,30.49,ENE,75,3.0,5.0,76,0.00,,,0.00,Wunderground v.1.15,2013-02-21 15:42:00,
2013-02-21 09:47:00,12.1,6.0,30.49,East,88,0.0,7.0,76,0.00,,,0.00,Wunderground v.1.15,2013-02-21 15:47:00,
2013-02-21 09:52:00,12.8,6.4,30.49,ENE,73,4.0,5.0,75,0.00,,,0.00,Wunderground v.1.15,2013-02-21 15:52:00,
2013-02-21 09:58:00,13.2,6.5,30.49,East,83,2.0,8.0,74,0.00,,,0.00,Wunderground v.1.15,2013-02-21 15:58:00,
2013-02-21 10:03:00,13.4,6.4,30.49,ENE,61,4.0,6.0,73,0.00,,,0.00,Wunderground v.1.15,2013-02-21 16:03:00,
2013-02-21 10:08:00,13.9,6.8,30.49,ENE,72,6.0,8.0,73,0.00,,,0.00,Wunderground v.1.15,2013-02-21 16:08:00,
2013-02-21 10:13:00,14.2,6.5,30.48,NE,47,4.0,8.0,71,0.00,,,0.00,Wunderground v.1.15,2013-02-21 16:13:00,
2013-02-21 10:18:00,14.4,6.7,30.48,East,80,4.0,8.0,71,0.00,,,0.00,Wunderground v.1.15,2013-02-21 16:18:00,
2013-02-21 10:23:00,14.5,6.5,30.49,NE,50,7.0,10.0,70,0.00,,,0.00,Wunderground v.1.15,2013-02-21 16:23:00,
2013-02-21 10:28:00,14.9,6.9,30.49,NE,49,4.0,10.0,70,0.00,,,0.00,Wunderground v.1.15,2013-02-21 16:28:00,
2013-02-21 10:33:00,15.6,7.6,30.49,NE,53,4.0,10.0,70,0.00,,,0.00,Wunderground v.1.15,2013-02-21 16:33:00,
2013-02-21 10:39:00,16.1,7.4,30.50,NE,40,2.0,10.0,68,0.00,,,0.00,Wunderground v.1.15,2013-02-21 16:39:00,
2013-02-21 10:43:00,16.5,7.8,30.49,East,79,4.0,5.0,68,0.00,,,0.00,Wunderground v.1.15,2013-02-21 16:43:00,
2013-02-21 10:49:00,17.2,8.1,30.50,ENE,62,7.0,7.0,67,0.00,,,0.00,Wunderground v.1.15,2013-02-21 16:49:00,
2013-02-21 10:54:00,17.5,7.7,30.50,East,93,4.0,6.0,65,0.00,,,0.00,Wunderground v.1.15,2013-02-21 16:54:00,
2013-02-21 10:59:00,17.9,8.1,30.49,NE,46,3.0,6.0,65,0.00,,,0.00,Wunderground v.1.15,2013-02-21 16:59:00,
2013-02-21 11:04:00,18.0,7.9,30.49,ENE,77,2.0,8.0,64,0.00,,,0.00,Wunderground v.1.15,2013-02-21 17:04:00,
2013-02-21 11:09:00,18.1,8.3,30.49,ENE,69,5.0,8.0,65,0.00,,,0.00,Wunderground v.1.15,2013-02-21 17:09:00,
2013-02-21 11:14:00,18.2,8.4,30.49,ENE,61,5.0,7.0,65,0.00,,,0.00,Wunderground v.1.15,2013-02-21 17:14:00,
2013-02-21 11:20:00,18.8,8.6,30.49,ENE,68,5.0,7.0,64,0.00,,,0.00,Wunderground v.1.15,2013-02-21 17:20:00,
2013-02-21 11:25:00,19.3,8.8,30.49,ENE,60,6.0,6.0,63,0.00,,,0.00,Wunderground v.1.15,2013-02-21 17:25:00,
2013-02-21 11:30:00,19.7,9.1,30.49,East,88,5.0,9.0,63,0.00,,,0.00,Wunderground v.1.15,2013-02-21 17:30:00,
2013-02-21 11:35:00,19.6,8.7,30.49,ENE,58,7.0,8.0,62,0.00,,,0.00,Wunderground v.1.15,2013-02-21 17:35:00,
2013-02-21 11:40:00,19.6,8.7,30.49,ENE,76,5.0,8.0,62,0.00,,,0.00,Wunderground v.1.15,2013-02-21 17:40:00,
2013-02-21 11:45:00,20.0,9.4,30.48,ENE,61,5.0,7.0,63,0.00,,,0.00,Wunderground v.1.15,2013-02-21 17:45:00,
2013-02-21 11:50:00,21.1,10.1,30.49,NE,52,3.0,11.0,62,0.00,,,0.00,Wunderground v.1.15,2013-02-21 17:50:00,
2013-02-21 11:55:00,21.8,10.0,30.48,East,86,4.0,11.0,60,0.00,,,0.00,Wunderground v.1.15,2013-02-21 17:55:00,
2013-02-21 12:00:00,21.5,9.0,30.48,NE,48,4.0,11.0,58,0.00,,,0.00,Wunderground v.1.15,2013-02-21 18:00:00,
2013-02-21 12:05:00,21.8,9.7,30.48,ENE,71,4.0,7.0,59,0.00,,,0.00,Wunderground v.1.15,2013-02-21 18:05:00,
2013-02-21 12:10:00,21.5,9.4,30.47,NE,42,1.0,7.0,59,0.00,,,0.00,Wunderground v.1.15,2013-02-21 18:10:00,
2013-02-21 12:15:00,21.2,9.5,30.47,NE,46,3.0,7.0,60,0.00,,,0.00,Wunderground v.1.15,2013-02-21 18:15:00,
2013-02-21 12:20:00,21.4,9.7,30.46,NE,51,5.0,7.0,60,0.00,,,0.00,Wunderground v.1.15,2013-02-21 18:20:00,
2013-02-21 12:25:00,21.7,9.9,30.46,NE,53,4.0,6.0,60,0.00,,,0.00,Wunderground v.1.15,2013-02-21 18:25:00,
2013-02-21 12:30:00,22.0,10.2,30.46,NE,36,4.0,4.0,60,0.00,,,0.00,Wunderground v.1.15,2013-02-21 18:30:00,
2013-02-21 12:35:00,22.5,9.9,30.45,East,92,6.0,6.0,58,0.00,,,0.00,Wunderground v.1.15,2013-02-21 18:35:00,
2013-02-21 12:41:00,22.9,10.3,30.44,NE,53,6.0,6.0,58,0.00,,,0.00,Wunderground v.1.15,2013-02-21 18:41:00,
2013-02-21 12:46:00,23.2,10.6,30.44,East,86,5.0,8.0,58,0.00,,,0.00,Wunderground v.1.15,2013-02-21 18:46:00,
2013-02-21 12:51:00,23.2,10.2,30.43,ENE,65,3.0,4.0,57,0.00,,,0.00,Wunderground v.1.15,2013-02-21 18:51:00,
2013-02-21 12:56:00,23.6,10.6,30.43,NNE,26,4.0,7.0,57,0.00,,,0.00,Wunderground v.1.15,2013-02-21 18:56:00,
2013-02-21 13:01:00,23.8,11.2,30.43,ENE,65,0.0,4.0,58,0.00,,,0.00,Wunderground v.1.15,2013-02-21 19:01:00,
2013-02-21 13:06:00,24.3,10.8,30.42,East,81,3.0,5.0,56,0.00,,,0.00,Wunderground v.1.15,2013-02-21 19:06:00,
2013-02-21 13:11:00,24.3,10.8,30.42,ENE,77,4.0,6.0,56,0.00,,,0.00,Wunderground v.1.15,2013-02-21 19:11:00,
2013-02-21 13:16:00,24.3,10.4,30.42,ENE,78,4.0,11.0,55,0.00,,,0.00,Wunderground v.1.15,2013-02-21 19:16:00,
2013-02-21 13:22:00,23.3,9.9,30.42,ESE,111,2.0,5.0,56,0.00,,,0.00,Wunderground v.1.15,2013-02-21 19:22:00,
2013-02-21 13:27:00,23.1,10.1,30.42,East,94,6.0,8.0,57,0.00,,,0.00,Wunderground v.1.15,2013-02-21 19:27:00,
2013-02-21 13:32:00,23.0,10.4,30.42,ENE,60,8.0,8.0,58,0.00,,,0.00,Wunderground v.1.15,2013-02-21 19:32:00,
2013-02-21 13:37:00,23.3,10.3,30.42,ENE,73,4.0,8.0,57,0.00,,,0.00,Wunderground v.1.15,2013-02-21 19:37:00,
2013-02-21 13:42:00,23.3,11.1,30.41,North,10,4.0,6.0,59,0.00,,,0.00,Wunderground v.1.15,2013-02-21 19:42:00,
2013-02-21 13:47:00,23.6,10.6,30.41,East,97,7.0,8.0,57,0.00,,,0.00,Wunderground v.1.15,2013-02-21 19:47:00,
2013-02-21 13:53:00,23.8,10.8,30.41,ENE,57,3.0,7.0,57,0.00,,,0.00,Wunderground v.1.15,2013-02-21 19:53:00,
2013-02-21 13:58:00,23.9,10.9,30.41,ENE,58,6.0,10.0,57,0.00,,,0.00,Wunderground v.1.15,2013-02-21 19:58:00,
2013-02-21 14:03:00,23.6,10.6,30.40,NE,55,2.0,7.0,57,0.00,,,0.00,Wunderground v.1.15,2013-02-21 20:03:00,
2013-02-21 14:08:00,23.7,10.7,30.40,East,81,4.0,11.0,57,0.00,,,0.00,Wunderground v.1.15,2013-02-21 20:08:00,
2013-02-21 14:13:00,23.4,10.4,30.40,ESE,117,7.0,9.0,57,0.00,,,0.00,Wunderground v.1.15,2013-02-21 20:13:00,
2013-02-21 14:19:00,23.0,11.9,30.40,East,83,4.0,9.0,62,0.00,,,0.00,Wunderground v.1.15,2013-02-21 20:19:00,
2013-02-21 14:24:00,23.3,11.1,30.40,ESE,109,8.0,8.0,59,0.00,,,0.00,Wunderground v.1.15,2013-02-21 20:24:00,
2013-02-21 14:29:00,23.2,10.2,30.39,ESE,103,6.0,9.0,57,0.00,,,0.00,Wunderground v.1.15,2013-02-21 20:29:00,
2013-02-21 14:34:00,23.5,10.5,30.39,ENE,74,5.0,8.0,57,0.00,,,0.00,Wunderground v.1.15,2013-02-21 20:34:00,
2013-02-21 14:39:00,23.6,10.6,30.39,East,91,4.0,8.0,57,0.00,,,0.00,Wunderground v.1.15,2013-02-21 20:39:00,
2013-02-21 14:44:00,23.6,10.6,30.39,ESE,112,2.0,11.0,57,0.00,,,0.00,Wunderground v.1.15,2013-02-21 20:44:00,
2013-02-21 14:49:00,23.7,10.7,30.38,ENE,71,6.0,11.0,57,0.00,,,0.00,Wunderground v.1.15,2013-02-21 20:49:00,
2013-02-21 14:54:00,23.6,11.0,30.38,ENE,62,4.0,10.0,58,0.00,,,0.00,Wunderground v.1.15,2013-02-21 20:54:00,
2013-02-21 15:00:00,23.7,10.7,30.38,NE,44,10.0,10.0,57,0.00,,,0.00,Wunderground v.1.15,2013-02-21 21:00:00,
2013-02-21 15:05:00,23.6,10.6,30.38,ESE,114,4.0,8.0,57,0.00,,,0.00,Wunderground v.1.15,2013-02-21 21:05:00,
2013-02-21 15:10:00,23.9,10.9,30.38,ENE,62,5.0,8.0,57,0.00,,,0.00,Wunderground v.1.15,2013-02-21 21:10:00,
2013-02-21 15:15:00,24.4,11.3,30.38,NNE,18,8.0,8.0,57,0.00,,,0.00,Wunderground v.1.15,2013-02-21 21:15:00,
2013-02-21 15:20:00,24.4,11.3,30.37,NE,55,4.0,8.0,57,0.00,,,0.00,Wunderground v.1.15,2013-02-21 21:20:00,
2013-02-21 15:25:00,24.2,11.1,30.36,NNE,32,5.0,11.0,57,0.00,,,0.00,Wunderground v.1.15,2013-02-21 21:25:00,
2013-02-21 15:30:00,23.8,10.8,30.36,ENE,69,8.0,8.0,57,0.00,,,0.00,Wunderground v.1.15,2013-02-21 21:30:00,
2013-02-21 15:35:00,23.6,11.0,30.36,ENE,76,11.0,13.0,58,0.00,,,0.00,Wunderground v.1.15,2013-02-21 21:35:00,
2013-02-21 15:41:00,23.4,11.2,30.36,ENE,74,8.0,8.0,59,0.00,,,0.00,Wunderground v.1.15,2013-02-21 21:41:00,
2013-02-21 15:46:00,23.1,11.3,30.36,ENE,57,3.0,10.0,60,0.00,,,0.00,Wunderground v.1.15,2013-02-21 21:46:00,
2013-02-21 15:51:00,22.9,11.1,30.36,NE,56,5.0,5.0,60,0.00,,,0.00,Wunderground v.1.15,2013-02-21 21:51:00,
2013-02-21 15:56:00,22.7,11.3,30.35,ENE,63,7.0,11.0,61,0.00,,,0.00,Wunderground v.1.15,2013-02-21 21:56:00,
2013-02-21 16:01:00,22.5,11.1,30.35,NE,45,0.0,5.0,61,0.00,,,0.00,Wunderground v.1.15,2013-02-21 22:01:00,
2013-02-21 16:06:00,22.3,10.9,30.35,ENE,63,7.0,8.0,61,0.00,,,0.00,Wunderground v.1.15,2013-02-21 22:06:00,
2013-02-21 16:11:00,21.9,10.9,30.35,NE,56,5.0,5.0,62,0.00,,,0.00,Wunderground v.1.15,2013-02-21 22:11:00,
2013-02-21 16:16:00,22.0,11.3,30.35,ENE,58,3.0,7.0,63,0.00,,,0.00,Wunderground v.1.15,2013-02-21 22:16:00,
2013-02-21 16:21:00,22.0,11.3,30.35,ENE,62,3.0,5.0,63,0.00,,,0.00,Wunderground v.1.15,2013-02-21 22:21:00,
2013-02-21 16:26:00,22.0,11.7,30.35,NNE,26,1.0,7.0,64,0.00,,,0.00,Wunderground v.1.15,2013-02-21 22:26:00,
2013-02-21 16:32:00,22.0,11.3,30.35,ENE,63,5.0,6.0,63,0.00,,,0.00,Wunderground v.1.15,2013-02-21 22:32:00,
2013-02-21 16:37:00,22.0,11.7,30.34,NE,55,2.0,6.0,64,0.00,,,0.00,Wunderground v.1.15,2013-02-21 22:37:00,
2013-02-21 16:42:00,21.9,11.6,30.34,NNE,33,7.0,7.0,64,0.00,,,0.00,Wunderground v.1.15,2013-02-21 22:42:00,
2013-02-21 16:47:00,21.9,11.6,30.34,NNE,28,3.0,7.0,64,0.00,,,0.00,Wunderground v.1.15,2013-02-21 22:47:00,
2013-02-21 16:52:00,21.9,11.9,30.34,NE,51,3.0,7.0,65,0.00,,,0.00,Wunderground v.1.15,2013-02-21 22:52:00,
2013-02-21 16:57:00,21.8,11.5,30.33,NE,51,6.0,9.0,64,0.00,,,0.00,Wunderground v.1.15,2013-02-21 22:57:00,
2013-02-21 17:02:00,21.8,11.8,30.33,ENE,61,3.0,10.0,65,0.00,,,0.00,Wunderground v.1.15,2013-02-21 23:02:00,
2013-02-21 17:08:00,21.7,11.4,30.33,NE,34,4.0,10.0,64,0.00,,,0.00,Wunderground v.1.15,2013-02-21 23:08:00,
2013-02-21 17:13:00,21.7,11.7,30.33,ENE,67,3.0,8.0,65,0.00,,,0.00,Wunderground v.1.15,2013-02-21 23:13:00,
2013-02-21 17:18:00,21.6,11.6,30.32,NE,45,6.0,10.0,65,0.00,,,0.00,Wunderground v.1.15,2013-02-21 23:18:00,
2013-02-21 17:23:00,21.6,11.6,30.32,East,94,2.0,8.0,65,0.00,,,0.00,Wunderground v.1.15,2013-02-21 23:23:00,
2013-02-21 17:28:00,21.6,12.0,30.32,ENE,64,4.0,8.0,66,0.00,,,0.00,Wunderground v.1.15,2013-02-21 23:28:00,
2013-02-21 17:33:00,21.6,12.0,30.32,ENE,60,1.0,6.0,66,0.00,,,0.00,Wunderground v.1.15,2013-02-21 23:33:00,
2013-02-21 17:39:00,21.6,12.0,30.32,ENE,59,2.0,6.0,66,0.00,,,0.00,Wunderground v.1.15,2013-02-21 23:39:00,
2013-02-21 17:44:00,21.6,12.0,30.32,NE,40,5.0,7.0,66,0.00,,,0.00,Wunderground v.1.15,2013-02-21 23:44:00,
2013-02-21 17:49:00,21.6,12.0,30.32,ENE,59,4.0,8.0,66,0.00,,,0.00,Wunderground v.1.15,2013-02-21 23:49:00,
2013-02-21 17:54:00,21.7,12.1,30.32,ENE,58,3.0,5.0,66,0.00,,,0.00,Wunderground v.1.15,2013-02-21 23:54:00,
2013-02-21 17:59:00,21.7,12.4,30.32,NNE,28,3.0,8.0,67,0.00,,,0.00,Wunderground v.1.15,2013-02-21 23:59:00,
2013-02-21 18:04:00,21.8,12.5,30.32,ENE,63,6.0,6.0,67,0.00,,,0.00,Wunderground v.1.15,2013-02-22 00:04:00,
2013-02-21 18:09:00,21.8,12.5,30.32,ENE,65,5.0,7.0,67,0.00,,,0.00,Wunderground v.1.15,2013-02-22 00:09:00,
2013-02-21 18:14:00,21.9,12.6,30.32,ENE,74,3.0,6.0,67,0.00,,,0.00,Wunderground v.1.15,2013-02-22 00:14:00,
2013-02-21 18:19:00,22.0,12.7,30.31,ENE,66,6.0,7.0,67,0.00,,,0.00,Wunderground v.1.15,2013-02-22 00:19:00,
2013-02-21 18:25:00,22.1,12.8,30.31,ENE,71,3.0,8.0,67,0.00,,,0.00,Wunderground v.1.15,2013-02-22 00:25:00,
2013-02-21 18:30:00,22.2,12.9,30.30,ENE,78,4.0,8.0,67,0.00,,,0.00,Wunderground v.1.15,2013-02-22 00:30:00,
2013-02-21 18:35:00,22.3,13.0,30.30,ENE,65,5.0,8.0,67,0.00,,,0.00,Wunderground v.1.15,2013-02-22 00:35:00,
2013-02-21 18:40:00,22.4,13.1,30.30,ENE,74,4.0,8.0,67,0.00,,,0.00,Wunderground v.1.15,2013-02-22 00:40:00,
2013-02-21 18:45:00,22.5,13.2,30.30,NE,55,5.0,8.0,67,0.00,,,0.00,Wunderground v.1.15,2013-02-22 00:45:00,
2013-02-21 18:50:00,22.5,13.5,30.30,NE,35,6.0,6.0,68,0.00,,,0.00,Wunderground v.1.15,2013-02-22 00:50:00,
2013-02-21 18:56:00,22.6,13.6,30.30,ENE,62,1.0,7.0,68,0.00,,,0.00,Wunderground v.1.15,2013-02-22 00:56:00,
2013-02-21 19:01:00,22.6,13.6,30.29,NNE,29,3.0,3.0,68,0.00,,,0.00,Wunderground v.1.15,2013-02-22 01:01:00,
2013-02-21 19:06:00,22.6,13.6,30.30,ENE,67,5.0,7.0,68,0.00,,,0.00,Wunderground v.1.15,2013-02-22 01:06:00,
2013-02-21 19:11:00,22.7,13.7,30.29,ENE,59,4.0,4.0,68,0.00,,,0.00,Wunderground v.1.15,2013-02-22 01:11:00,
2013-02-21 19:16:00,22.6,14.0,30.29,ENE,58,1.0,4.0,69,0.00,,,0.00,Wunderground v.1.15,2013-02-22 01:16:00,
2013-02-21 19:21:00,22.5,13.9,30.28,ENE,62,3.0,3.0,69,0.00,,,0.00,Wunderground v.1.15,2013-02-22 01:21:00,
2013-02-21 19:26:00,22.5,13.9,30.27,NE,53,0.0,6.0,69,0.00,,,0.00,Wunderground v.1.15,2013-02-22 01:26:00,
2013-02-21 19:31:00,22.5,13.9,30.27,NNE,32,1.0,4.0,69,0.00,,,0.00,Wunderground v.1.15,2013-02-22 01:31:00,
2013-02-21 19:36:00,22.5,14.2,30.27,NE,52,3.0,4.0,70,0.00,,,0.00,Wunderground v.1.15,2013-02-22 01:36:00,
2013-02-21 19:41:00,22.5,14.2,30.27,NNE,26,3.0,6.0,70,0.00,,,0.00,Wunderground v.1.15,2013-02-22 01:41:00,
2013-02-21 19:46:00,22.6,14.3,30.27,NNE,30,0.0,6.0,70,0.00,,,0.00,Wunderground v.1.15,2013-02-22 01:46:00,
2013-02-21 19:51:00,22.6,14.3,30.27,NE,44,3.0,4.0,70,0.00,,,0.00,Wunderground v.1.15,2013-02-22 01:51:00,
2013-02-21 19:57:00,22.6,14.3,30.26,ENE,65,3.0,6.0,70,0.00,,,0.00,Wunderground v.1.15,2013-02-22 01:57:00,
2013-02-21 20:02:00,22.7,14.4,30.26,NE,37,7.0,7.0,70,0.00,,,0.00,Wunderground v.1.15,2013-02-22 02:02:00,
2013-02-21 20:07:00,22.8,14.5,30.26,NNE,13,2.0,11.0,70,0.00,,,0.00,Wunderground v.1.15,2013-02-22 02:07:00,
2013-02-21 20:12:00,23.0,15.0,30.26,NE,36,4.0,6.0,71,0.00,,,0.00,Wunderground v.1.15,2013-02-22 02:12:00,
2013-02-21 20:17:00,23.1,15.1,30.26,NE,47,4.0,8.0,71,0.00,,,0.00,Wunderground v.1.15,2013-02-22 02:17:00,
2013-02-21 20:22:00,23.3,15.3,30.26,ENE,71,5.0,10.0,71,0.00,,,0.00,Wunderground v.1.15,2013-02-22 02:22:00,
2013-02-21 20:27:00,23.4,15.7,30.26,NNE,13,8.0,12.0,72,0.00,,,0.00,Wunderground v.1.15,2013-02-22 02:27:00,
2013-02-21 20:32:00,23.4,15.7,30.26,NE,46,4.0,4.0,72,0.00,,,0.00,Wunderground v.1.15,2013-02-22 02:32:00,
2013-02-21 20:37:00,23.5,15.8,30.26,NNE,24,3.0,11.0,72,0.00,,,0.00,Wunderground v.1.15,2013-02-22 02:37:00,
2013-02-21 20:43:00,23.6,15.9,30.26,ENE,65,5.0,10.0,72,0.00,,,0.00,Wunderground v.1.15,2013-02-22 02:43:00,
2013-02-21 20:48:00,23.7,16.3,30.26,North,5,3.0,10.0,73,0.00,,,0.00,Wunderground v.1.15,2013-02-22 02:48:00,
2013-02-21 20:53:00,23.8,16.4,30.26,ENE,69,4.0,6.0,73,0.00,,,0.00,Wunderground v.1.15,2013-02-22 02:53:00,
2013-02-21 20:58:00,23.9,16.8,30.26,ENE,69,10.0,10.0,74,0.00,,,0.00,Wunderground v.1.15,2013-02-22 02:58:00,
2013-02-21 21:03:00,23.9,16.8,30.26,ENE,67,4.0,7.0,74,0.00,,,0.00,Wunderground v.1.15,2013-02-22 03:03:00,
2013-02-21 21:08:00,23.9,16.8,30.26,NNE,32,4.0,10.0,74,0.00,,,0.00,Wunderground v.1.15,2013-02-22 03:08:00,
2013-02-21 21:13:00,23.9,16.8,30.25,NE,40,4.0,10.0,74,0.00,,,0.00,Wunderground v.1.15,2013-02-22 03:13:00,
2013-02-21 21:19:00,23.9,16.8,30.25,ENE,75,3.0,10.0,74,0.00,,,0.00,Wunderground v.1.15,2013-02-22 03:19:00,
2013-02-21 21:24:00,23.9,16.8,30.25,NE,53,4.0,5.0,74,0.00,,,0.00,Wunderground v.1.15,2013-02-22 03:24:00,
2013-02-21 21:29:00,23.9,17.1,30.25,NE,53,4.0,6.0,75,0.00,,,0.00,Wunderground v.1.15,2013-02-22 03:29:00,
2013-02-21 21:34:00,23.9,17.1,30.25,ENE,71,4.0,6.0,75,0.00,,,0.00,Wunderground v.1.15,2013-02-22 03:34:00,
2013-02-21 21:39:00,23.9,17.4,30.25,ENE,63,3.0,6.0,76,0.00,,,0.00,Wunderground v.1.15,2013-02-22 03:39:00,
2013-02-21 21:44:00,23.8,17.3,30.25,ENE,69,3.0,10.0,76,0.00,,,0.00,Wunderground v.1.15,2013-02-22 03:44:00,
2013-02-21 21:50:00,23.7,17.2,30.25,NNE,30,3.0,10.0,76,0.00,,,0.00,Wunderground v.1.15,2013-02-22 03:50:00,
2013-02-21 21:55:00,23.6,17.4,30.25,ENE,63,5.0,10.0,77,0.00,,,0.00,Wunderground v.1.15,2013-02-22 03:55:00,
2013-02-21 22:00:00,23.5,17.6,30.24,ENE,67,8.0,11.0,78,0.00,,,0.00,Wunderground v.1.15,2013-02-22 04:00:00,
2013-02-21 22:05:00,23.3,17.7,30.24,NE,38,4.0,8.0,79,0.00,,,0.00,Wunderground v.1.15,2013-02-22 04:05:00,
2013-02-21 22:10:00,23.2,17.7,30.24,NE,49,5.0,10.0,79,0.00,,,0.00,Wunderground v.1.15,2013-02-22 04:10:00,
2013-02-21 22:15:00,23.1,17.8,30.23,NE,45,3.0,11.0,80,0.00,,,0.00,Wunderground v.1.15,2013-02-22 04:15:00,
2013-02-21 22:20:00,23.0,17.7,30.23,ENE,66,4.0,6.0,80,0.00,,,0.00,Wunderground v.1.15,2013-02-22 04:20:00,
2013-02-21 22:26:00,22.9,17.9,30.23,NNE,29,0.0,6.0,81,0.00,,,0.00,Wunderground v.1.15,2013-02-22 04:26:00,
2013-02-21 22:31:00,22.8,17.8,30.23,NNE,19,1.0,4.0,81,0.00,,,0.00,Wunderground v.1.15,2013-02-22 04:31:00,
2013-02-21 22:36:00,22.7,18.0,30.23,NE,42,4.0,11.0,82,0.00,,,0.00,Wunderground v.1.15,2013-02-22 04:36:00,
2013-02-21 22:41:00,22.6,17.9,30.23,NE,37,3.0,5.0,82,0.00,,,0.00,Wunderground v.1.15,2013-02-22 04:41:00,
2013-02-21 22:46:00,22.5,18.1,30.22,NE,48,4.0,9.0,83,0.00,,,0.00,Wunderground v.1.15,2013-02-22 04:46:00,
2013-02-21 22:51:00,22.4,18.0,30.22,ENE,63,12.0,12.0,83,0.00,,,0.00,Wunderground v.1.15,2013-02-22 04:51:00,
2013-02-21 22:56:00,22.3,18.2,30.21,ENE,67,6.0,12.0,84,0.00,,,0.00,Wunderground v.1.15,2013-02-22 04:56:00,
2013-02-21 23:00:00,22.3,18.2,30.21,ENE,65,6.0,12.0,84,0.00,,,0.00,Wunderground v.1.15,2013-02-22 05:00:00,
2013-02-21 23:01:00,22.3,18.2,30.21,NE,46,5.0,6.0,84,0.00,,,0.00,Wunderground v.1.15,2013-02-22 05:01:00,
2013-02-21 23:06:00,22.2,18.4,30.20,NE,36,7.0,10.0,85,0.00,,,0.00,Wunderground v.1.15,2013-02-22 05:06:00,
2013-02-21 23:11:00,22.2,18.4,30.20,NNE,15,4.0,7.0,85,0.00,,,0.00,Wunderground v.1.15,2013-02-22 05:11:00,
2013-02-21 23:16:00,22.2,18.4,30.20,NE,55,5.0,8.0,85,0.00,,,0.00,Wunderground v.1.15,2013-02-22 05:16:00,
2013-02-21 23:21:00,22.1,18.6,30.20,ENE,57,6.0,8.0,86,0.00,,,0.00,Wunderground v.1.15,2013-02-22 05:21:00,
2013-02-21 23:26:00,22.1,18.6,30.20,ENE,59,4.0,8.0,86,0.00,,,0.00,Wunderground v.1.15,2013-02-22 05:26:00,
2013-02-21 23:31:00,22.1,18.6,30.20,ENE,71,7.0,7.0,86,0.00,,,0.00,Wunderground v.1.15,2013-02-22 05:31:00,
2013-02-21 23:37:00,22.1,18.6,30.20,NE,42,6.0,10.0,86,0.00,,,0.00,Wunderground v.1.15,2013-02-22 05:37:00,
2013-02-21 23:42:00,22.2,18.7,30.20,NE,54,5.0,8.0,86,0.00,,,0.00,Wunderground v.1.15,2013-02-22 05:42:00,
2013-02-21 23:47:00,22.1,18.6,30.19,ENE,71,7.0,8.0,86,0.00,,,0.00,Wunderground v.1.15,2013-02-22 05:47:00,
2013-02-21 23:52:00,22.2,18.9,30.19,NE,36,7.0,10.0,87,0.00,,,0.00,Wunderground v.1.15,2013-02-22 05:52:00,
2013-02-21 23:57:00,22.2,18.9,30.19,NE,55,5.0,11.0,87,0.00,,,0.00,Wunderground v.1.15,2013-02-22 05:57:00,